Weather reports worldwide

Advertisment
Landivisiau, France (7106): temperature & dewpoint: 08.12.2018 00:00:00 - 14.12.2018 00:00:00 (CET)Landivisiau, France (7106): temperature 5cm: 08.12.2018 00:00:00 - 14.12.2018 00:00:00 (CET)Landivisiau, France (7106): temperature -20cm: 08.12.2018 00:00:00 - 14.12.2018 00:00:00 (CET)Landivisiau, France (7106): wind speed & gusts: 08.12.2018 00:00:00 - 14.12.2018 00:00:00 (CET)Landivisiau, France (7106): wind direction: 08.12.2018 00:00:00 - 14.12.2018 00:00:00 (CET)Landivisiau, France (7106): reduced air pressure: 08.12.2018 00:00:00 - 14.12.2018 00:00:00 (CET)Landivisiau, France (7106): visibility: 08.12.2018 00:00:00 - 14.12.2018 00:00:00 (CET)Landivisiau, France (7106): precipitation: 08.12.2018 00:00:00 - 14.12.2018 00:00:00 (CET)
Date & Time tt [°C] td [°C] tt 5cm [°C] tt -20cm [°C] ff [km/h] ff [kn] fx [km/h] fx [kn] dd ppp [hPa] vv [km] rr [mm]
14.12.2018 00:00:00 2,5 2,2 2,4 8,4 12 6 16 9 ESE 1015,6 1,7 0,6
13.12.2018 23:00:00 2,5 2,2 2,4 8,5 13 7 18 10 ESE 1015,1 1,1 0,2
13.12.2018 22:00:00 2,8 2,4 2,6 8,5 11 6 24 13 E 1014,5 1,7 0,0
13.12.2018 21:00:00 3,1 2,2 2,9 8,5 15 8 28 15 ESE 1013,5 4,5 0,0
13.12.2018 20:00:00 3,3 2,6 3,1 8,6 21 11 29 16 ESE 1012,5 6 0,0
13.12.2018 19:00:00 3,8 3,4 3,5 8,6 14 8 18 10 E 1011,8 3,5 0,4
13.12.2018 18:00:00 3,7 3,1 3,5 8,6 12 6 21 11 SE 1011,3 2,5 0,8
13.12.2018 17:00:00 4,1 3,5 4,0 8,6 15 8 22 12 ESE 1009,8 4,6 0,0
13.12.2018 16:00:00 4,7 4,3 4,7 8,7 14 7 21 11 E 1008,8 2,7 1,0
13.12.2018 15:00:00 5,1 4,5 4,9 8,7 16 9 28 15 ESE 1008,0 2,1 1,0
13.12.2018 14:00:00 4,9 4,2 4,5 8,7 22 12 34 18 ESE 1007,2 12 0,4
13.12.2018 13:00:00 4,5 3,8 4,3 8,7 24 13 34 18 ESE 1007,1 6 0,6
13.12.2018 12:00:00 4,4 3,5 4,3 8,8 24 13 34 18 ESE 1006,8 13 0,2
13.12.2018 11:00:00 4,3 3,3 4,0 8,9 23 12 31 17 ESE 1006,4 14 0,2
13.12.2018 10:00:00 4,4 3,5 3,9 8,9 25 14 37 20 SE 1006,0 15 0,0
13.12.2018 09:00:00 4,2 3,5 3,6 9,0 24 13 39 21 ESE 1005,7 7 1,0
13.12.2018 08:00:00 4,1 2,9 3,6 9,1 26 14 41 22 SE 1005,6 6 0,8
13.12.2018 07:00:00 4,5 3,2 4,0 9,1 25 13 42 23 SE 1005,4 10 0,0
13.12.2018 06:00:00 4,7 3,2 4,6 9,2 22 12 42 23 SE 1005,8 15 0,0
13.12.2018 05:00:00 4,9 3,6 4,8 9,2 29 15 50 27 SSE 1005,9 13 0,0
13.12.2018 04:00:00 4,9 3,7 4,7 9,3 25 14 50 27 SE 1006,3 10 0,0
13.12.2018 03:00:00 5,2 4,0 4,9 9,4 30 16 42 23 SE 1006,8 10 0,0
13.12.2018 02:00:00 5,3 4,3 5,0 9,5 28 15 42 23 SE 1007,5 8 0,2
13.12.2018 01:00:00 5,0 4,1 4,9 9,5 24 13 44 24 SE 1008,4 6 0,0
13.12.2018 00:00:00 5,0 4,1 4,9 9,5 26 14 42 23 SE 1009,5 5 0,0
12.12.2018 23:00:00 5,1 4,2 5,1 9,6 27 14 46 25 SE 1010,2 7 0,0
12.12.2018 22:00:00 5,6 4,7 5,6 9,7 27 15 44 24 SSE 1011,5 7 0,0
12.12.2018 21:00:00 5,9 5,0 5,9 9,7 26 14 42 23 SSE 1012,6 8 0,0
12.12.2018 20:00:00 6,1 5,4 6,0 9,7 17 9 37 20 SSE 1013,7 13 0,0
12.12.2018 19:00:00 6,0 5,6 6,0 9,7 21 12 35 19 SSE 1014,0 6 0,0
12.12.2018 18:00:00 6,3 5,7 6,3 9,7 25 13 35 19 SE 1014,6 9 0,0
12.12.2018 17:00:00 7,0 6,3 7,1 9,7 18 10 28 15 SSE 1015,2 11 0,0
12.12.2018 16:00:00 8,2 7,1 8,9 9,6 17 9 24 13 S 1015,4 16 0,0
12.12.2018 15:00:00 8,3 6,9 9,5 9,5 15 8 21 11 S 1016,0 15 0,0
12.12.2018 14:00:00 8,2 7,3 9,0 9,5 13 7 24 13 SSW 1017,0 13 0,0
12.12.2018 13:00:00 8,2 7,8 8,8 9,5 13 7 22 12 S 1017,6 7 0,0
12.12.2018 12:00:00 7,9 7,8 7,5 9,5 16 9 22 12 SSW 1018,6 4,8 0,0
12.12.2018 11:00:00 6,9 6,5 6,5 9,5 9 5 16 9 SSE 1018,6 0,1 0,0
12.12.2018 10:00:00 6,9 6,6 6,2 9,5 11 6 21 11 SSW 1019,0 4,6 0,0
12.12.2018 09:00:00 7,4 7,1 6,7 9,5 14 8 18 10 SSW 1019,0 15 0,0
12.12.2018 08:00:00 7,6 7,3 6,6 9,5 9 5 13 7 S 1018,6 8 0,2
12.12.2018 07:00:00 7,5 7,1 6,6 9,6 9 5 16 9 S 1018,6 32 0,0
12.12.2018 06:00:00 7,7 7,3 7,0 9,6 9 5 15 8 S 1018,7 10 0,0
12.12.2018 05:00:00 7,8 7,4 7,4 9,6 10 5 16 9 S 1018,7 43 0,2
12.12.2018 04:00:00 7,7 7,1 6,8 9,6 10 5 18 10 WSW 1018,6 7 0,0
12.12.2018 03:00:00 7,9 7,5 7,2 9,6 7 4 18 10 SSE 1017,9 53 0,2
12.12.2018 02:00:00 8,1 7,8 7,8 9,6 10 5 16 9 S 1018,2 9 0,6
12.12.2018 01:00:00 8,5 8,2 8,2 9,6 11 6 15 8 SE 1018,4 8 0,4
12.12.2018 00:00:00 8,9 8,0 8,4 9,6 2 1 22 12 NW 1018,7 8 2,2
11.12.2018 23:00:00 9,3 7,7 8,4 9,6 10 5 34 18 S 1018,4 6 0,4
11.12.2018 22:00:00 9,6 7,0 8,7 9,7 19 11 37 20 S 1017,9 31 0,0
11.12.2018 21:00:00 9,0 6,8 7,9 9,7 22 12 35 19 S 1018,4 20 0,0
11.12.2018 20:00:00 8,6 6,6 8,0 9,7 23 12 42 23 S 1018,9 19 0,0
11.12.2018 19:00:00 8,9 6,5 8,2 9,7 31 17 44 24 S 1019,0 20 0,0
11.12.2018 18:00:00 8,9 6,2 8,2 9,7 18 10 31 17 S 1019,4 33 0,0
11.12.2018 17:00:00 9,2 5,9 8,6 9,7 24 13 41 22 S 1020,2 50 0,0
11.12.2018 16:00:00 9,8 6,3 - - 31 17 44 24 S 1019,9 30 -
11.12.2018 15:00:00 10,1 7,2 10,4 9,6 24 13 44 24 S 1020,7 10 0,0
11.12.2018 14:00:00 9,5 6,4 10,1 9,6 29 15 52 28 S 1021,4 20 0,0
11.12.2018 13:00:00 9,5 5,7 10,1 9,6 21 11 34 18 S 1022,0 47 0,0
11.12.2018 12:00:00 8,8 5,5 9,1 9,6 24 13 37 20 S 1023,3 35 0,0
11.12.2018 11:00:00 8,2 5,7 7,4 9,6 13 7 21 11 SSE 1023,4 20 0,0
11.12.2018 10:00:00 7,0 4,8 6,6 9,6 14 8 22 12 SSE 1024,0 19 0,0
11.12.2018 09:00:00 7,4 6,2 7,2 9,6 14 7 22 12 SSE 1024,4 17 0,0
11.12.2018 08:00:00 7,3 6,6 6,8 9,7 13 7 16 9 SE 1024,4 15 0,0
11.12.2018 07:00:00 7,0 6,1 5,7 9,7 10 6 15 8 ESE 1024,5 14 0,0
11.12.2018 06:00:00 8,0 6,3 7,0 9,7 11 6 15 8 SSE 1024,9 18 0,0
11.12.2018 05:00:00 8,2 5,5 7,7 9,7 9 5 13 7 SE 1025,4 31 0,0
11.12.2018 04:00:00 8,1 5,7 7,8 9,7 8 4 15 8 SSE 1026,4 30 0,0
11.12.2018 03:00:00 8,1 5,9 7,8 9,7 11 6 13 7 SE 1027,0 20 0,0
11.12.2018 02:00:00 8,5 5,9 7,9 9,7 9 5 11 6 S 1027,9 20 0,0
11.12.2018 01:00:00 8,5 6,1 7,8 9,7 5 3 8 4 SSE 1028,5 18 0,0
11.12.2018 00:00:00 8,6 6,6 7,9 9,7 7 4 11 6 S 1029,0 17 0,0
10.12.2018 23:00:00 8,4 6,7 7,7 9,8 8 4 11 6 S 1029,1 14 0,0
10.12.2018 22:00:00 8,2 6,8 5,8 9,8 6 4 11 6 SSE 1029,4 15 0,0
10.12.2018 21:00:00 8,0 6,5 6,3 9,8 11 6 15 8 SSW 1029,7 10 0,0
10.12.2018 20:00:00 8,0 6,5 6,2 9,8 14 7 15 8 SSW 1029,9 13 0,0
10.12.2018 19:00:00 8,8 6,4 7,7 9,8 10 5 13 7 S 1030,1 25 0,0
10.12.2018 18:00:00 9,4 6,5 8,2 9,7 3 2 5 3 ESE 1030,5 18 0,0
10.12.2018 17:00:00 10,0 6,7 9,9 9,6 0 0 4 2 N 1030,7 17 0,0
10.12.2018 16:00:00 10,6 6,3 10,9 9,5 4 2 9 5 NNW 1031,0 20 0,0
10.12.2018 15:00:00 10,6 6,7 10,9 9,4 7 4 15 8 NNW 1031,2 20 0,0
10.12.2018 14:00:00 10,9 6,6 11,4 9,4 9 5 18 10 W 1031,3 10 0,0
10.12.2018 13:00:00 10,6 7,7 9,9 9,4 8 4 9 5 SSW 1031,9 10 0,0
10.12.2018 12:00:00 8,1 6,2 8,4 9,4 5 3 9 5 SSW 1032,4 17 0,4
10.12.2018 11:00:00 7,5 5,6 7,9 9,4 5 3 11 6 S 1032,5 16 0,0
10.12.2018 10:00:00 8,1 5,7 4,8 9,5 11 6 15 8 WSW 1031,8 19 0,0
10.12.2018 09:00:00 7,1 4,9 5,9 9,5 4 2 11 6 WSW 1031,8 18 0,0
10.12.2018 08:00:00 7,4 5,4 2,7 9,6 11 6 15 8 W 1031,8 14 0,0
10.12.2018 07:00:00 5,1 4,1 2,6 9,6 7 4 13 7 WSW 1032,0 12 0,0
10.12.2018 06:00:00 6,7 5,0 4,1 9,7 12 7 15 8 WSW 1031,5 16 0,0
10.12.2018 05:00:00 7,6 4,9 5,6 9,8 12 7 15 8 WSW 1031,3 17 0,0
10.12.2018 04:00:00 7,4 4,9 5,7 9,8 13 7 15 8 WSW 1031,5 18 0,0
10.12.2018 03:00:00 7,8 5,3 6,7 9,9 10 6 16 9 W 1031,2 16 0,0
10.12.2018 02:00:00 7,8 5,3 5,6 10,0 9 5 15 8 W 1031,1 10 0,0
10.12.2018 01:00:00 7,0 4,8 5,4 10,0 9 5 16 9 WNW 1031,2 16 0,0
10.12.2018 00:00:00 7,5 5,1 6,2 10,1 11 6 28 15 NW 1030,7 16 0,0
09.12.2018 23:00:00 8,1 5,7 6,9 10,1 16 9 28 15 WNW 1030,3 15 0,0
09.12.2018 22:00:00 8,5 5,4 7,1 10,2 17 9 31 17 NW 1029,7 16 0,0
09.12.2018 21:00:00 8,9 6,0 7,7 10,3 21 11 37 20 WNW 1029,1 15 0,0
09.12.2018 20:00:00 8,9 5,8 7,8 10,3 24 13 44 24 NW 1028,3 15 0,0
09.12.2018 19:00:00 9,2 6,5 8,1 10,3 21 11 41 22 NW 1027,7 14 0,0
09.12.2018 18:00:00 9,1 6,0 8,0 10,3 24 13 50 27 NW 1026,7 14 0,0
09.12.2018 17:00:00 10,3 7,0 9,6 10,3 30 16 59 32 NW 1025,9 14 0,0
09.12.2018 16:00:00 10,7 6,8 10,0 10,3 38 20 59 32 NW 1024,8 14 0,0
09.12.2018 15:00:00 10,8 7,1 9,7 10,3 31 17 65 35 NW 1023,8 13 0,0
09.12.2018 14:00:00 10,4 7,8 8,9 10,3 34 18 63 34 NW 1023,2 10 0,0
09.12.2018 13:00:00 10,8 7,1 10,3 10,3 39 21 72 39 NW 1022,6 13 0,0
09.12.2018 12:00:00 10,9 7,0 10,0 10,3 41 22 68 37 WNW 1021,7 13 0,0
09.12.2018 11:00:00 10,8 7,5 9,2 10,3 39 21 68 37 NW 1020,7 11 0,2
09.12.2018 10:00:00 10,5 8,3 9,0 10,3 39 21 70 38 WNW 1019,4 8 0,4
09.12.2018 09:00:00 10,6 7,3 9,1 10,3 38 20 74 40 WNW 1018,4 11 0,0
09.12.2018 08:00:00 10,5 6,8 8,7 10,3 41 22 68 37 WNW 1017,6 10 0,0
09.12.2018 07:00:00 10,4 6,5 8,3 10,4 41 22 70 38 W 1017,0 9 0,0
09.12.2018 06:00:00 9,7 6,6 8,2 10,5 36 20 80 43 WNW 1016,8 6 0,0
09.12.2018 05:00:00 10,1 5,5 8,0 10,5 42 23 80 43 W 1016,2 11 0,0
09.12.2018 04:00:00 9,5 5,3 7,2 10,6 35 19 80 43 W 1016,3 14 0,2
09.12.2018 03:00:00 9,8 5,0 9,1 10,6 35 19 65 35 WNW 1015,7 12 0,0
09.12.2018 02:00:00 10,1 5,1 9,0 10,7 31 17 78 42 W 1015,1 12 0,0
09.12.2018 01:00:00 10,6 6,9 9,5 10,7 33 18 61 33 W 1014,9 9 0,0
09.12.2018 00:00:00 11,1 6,8 9,3 10,7 40 22 72 39 W 1014,3 9 0,0
08.12.2018 23:00:00 10,7 7,4 9,3 10,7 41 22 80 43 W 1014,1 9 0,4
08.12.2018 22:00:00 11,6 8,1 10,7 10,7 37 20 57 31 W 1013,5 9 0,0
08.12.2018 21:00:00 11,4 7,9 10,7 10,7 39 21 65 35 W 1013,7 8 0,0
08.12.2018 20:00:00 11,6 8,6 10,7 10,7 35 19 72 39 W 1013,5 7 0,0
08.12.2018 19:00:00 12,2 9,4 10,8 10,6 40 22 67 36 W 1013,4 8 0,4
08.12.2018 18:00:00 12,2 9,8 11,1 10,6 37 20 78 42 W 1013,5 10 0,2
08.12.2018 17:00:00 12,5 10,2 11,7 10,5 40 22 61 33 W 1013,1 9 0,0
08.12.2018 16:00:00 12,7 10,9 11,8 10,4 44 24 80 43 W 1012,9 10 0,0
08.12.2018 15:00:00 12,6 12,0 11,7 10,4 42 23 72 39 WSW 1012,8 5 0,2
08.12.2018 14:00:00 11,8 11,3 11,1 10,3 41 22 61 33 WSW 1014,2 3,6 0,4
08.12.2018 13:00:00 11,3 10,8 10,7 10,3 39 21 63 34 WSW 1015,1 2,9 0,4
08.12.2018 12:00:00 10,9 10,1 10,4 10,3 36 19 67 36 WSW 1016,4 5 0,2
08.12.2018 11:00:00 10,9 10,0 10,0 10,3 36 20 55 30 WSW 1016,7 6 0,2
08.12.2018 10:00:00 10,5 9,4 9,6 10,3 34 18 55 30 WSW 1017,4 7 0,0
08.12.2018 09:00:00 10,4 8,8 9,6 10,3 37 20 59 32 W 1017,8 6 0,0
08.12.2018 08:00:00 10,6 7,7 9,3 10,3 32 17 48 26 W 1018,1 13 0,0
08.12.2018 07:00:00 10,0 7,1 8,9 10,3 27 15 50 27 W 1017,9 13 0,0
08.12.2018 06:00:00 10,2 6,5 8,4 10,4 34 18 50 27 W 1017,8 10 0,0
08.12.2018 05:00:00 9,6 6,9 8,3 10,4 30 16 44 24 W 1018,2 16 0,2
08.12.2018 04:00:00 9,7 5,7 8,8 10,5 31 17 50 27 W 1018,5 10 0,0
08.12.2018 03:00:00 9,5 6,0 8,2 10,5 29 16 54 29 W 1018,3 16 0,0
08.12.2018 02:00:00 9,0 6,1 7,3 10,6 29 16 63 34 W 1017,9 10 0,0
08.12.2018 01:00:00 9,4 6,7 7,4 10,7 31 17 46 25 W 1018,1 9 0,4
08.12.2018 00:00:00 8,8 5,9 7,2 10,8 33 18 55 30 W 1017,9 20 0,0

tt = temperature
td = dewpoint
tt 5cm = temperature 5cm
tt -20cm = temperature -20cm
ff = wind speed
fx = gusts
dd = wind direction
ppp = reduced air pressure
vv = visibility
rr = precipitation

Next stations